Time,TemperatureF,DewpointF,PressureIn,WindDirection,WindDirectionDegrees,WindSpeedMPH,WindSpeedGustMPH,Humidity,HourlyPrecipIn,Conditions,Clouds,dailyrainin,SoftwareType,DateUTC
2013-05-17 00:02:00,53.0,50.0,29.96,ESE,119,10.0,12.0,90,0.00,,,0.00,,2013-05-17 07:02:00,
2013-05-17 00:11:00,53.0,50.0,29.96,ESE,119,10.0,12.0,90,0.00,,,0.00,,2013-05-17 07:11:00,
2013-05-17 00:21:00,53.0,50.0,29.95,ESE,107,9.0,11.0,90,0.00,,,0.00,,2013-05-17 07:21:00,
2013-05-17 00:32:00,53.0,50.0,29.95,ESE,123,12.0,14.0,90,0.00,,,0.00,,2013-05-17 07:32:00,
2013-05-17 00:43:00,53.0,50.0,29.95,ESE,123,12.0,14.0,90,0.00,,,0.00,,2013-05-17 07:43:00,
2013-05-17 00:53:00,53.0,50.0,29.95,ESE,123,12.0,14.0,90,0.00,,,0.00,,2013-05-17 07:53:00,
2013-05-17 01:02:00,53.0,50.0,29.95,ESE,112,10.0,13.0,91,0.00,,,0.00,,2013-05-17 08:02:00,
2013-05-17 01:12:00,53.0,50.0,29.95,ESE,112,10.0,13.0,91,0.00,,,0.00,,2013-05-17 08:12:00,
2013-05-17 01:22:00,53.0,50.0,29.96,SE,125,9.0,12.0,90,0.00,,,0.00,,2013-05-17 08:22:00,
2013-05-17 01:33:00,53.0,50.0,29.96,ESE,105,9.0,14.0,90,0.00,,,0.00,,2013-05-17 08:33:00,
2013-05-17 01:42:00,53.0,50.0,29.96,ESE,105,9.0,14.0,90,0.00,,,0.00,,2013-05-17 08:42:00,
2013-05-17 01:51:00,53.0,50.0,29.96,ENE,74,12.0,15.0,91,0.00,,,0.00,,2013-05-17 08:51:00,
2013-05-17 02:02:00,53.0,50.0,29.95,ENE,76,11.0,14.0,91,0.00,,,0.00,,2013-05-17 09:02:00,
2013-05-17 02:12:00,53.0,50.0,29.95,ENE,76,11.0,14.0,91,0.00,,,0.00,,2013-05-17 09:12:00,
2013-05-17 02:22:00,53.0,51.0,29.94,East,95,15.0,18.0,92,0.00,,,0.00,,2013-05-17 09:22:00,
2013-05-17 02:33:00,52.0,50.0,29.95,ENE,70,13.0,17.0,93,0.00,,,0.00,,2013-05-17 09:33:00,
2013-05-17 02:42:00,52.0,50.0,29.95,ENE,70,13.0,17.0,93,0.00,,,0.00,,2013-05-17 09:42:00,
2013-05-17 02:53:00,53.0,52.0,29.94,ENE,57,13.0,17.0,95,0.00,,,0.00,,2013-05-17 09:53:00,
2013-05-17 03:03:00,53.0,52.0,29.94,East,86,12.0,16.0,95,0.00,,,0.00,,2013-05-17 10:03:00,
2013-05-17 03:12:00,53.0,52.0,29.94,East,86,12.0,16.0,95,0.00,,,0.00,,2013-05-17 10:12:00,
2013-05-17 03:23:00,53.0,52.0,29.94,ESE,105,9.0,15.0,95,0.00,,,0.00,,2013-05-17 10:23:00,
2013-05-17 03:32:00,52.0,51.0,29.94,East,84,9.0,13.0,95,0.00,,,0.00,,2013-05-17 10:32:00,
2013-05-17 03:42:00,52.0,51.0,29.94,East,84,9.0,13.0,95,0.00,,,0.00,,2013-05-17 10:42:00,
2013-05-17 03:53:00,52.0,51.0,29.93,East,91,11.0,14.0,95,0.00,,,0.00,,2013-05-17 10:53:00,
2013-05-17 04:02:00,53.0,52.0,29.93,East,89,10.0,14.0,95,0.00,,,0.00,,2013-05-17 11:02:00,
2013-05-17 04:12:00,53.0,52.0,29.93,East,89,10.0,14.0,95,0.00,,,0.00,,2013-05-17 11:12:00,
2013-05-17 04:22:00,53.0,51.0,29.94,ENE,76,6.0,9.0,94,0.00,,,0.00,,2013-05-17 11:22:00,
2013-05-17 04:33:00,53.0,51.0,29.94,East,101,6.0,8.0,94,0.00,,,0.00,,2013-05-17 11:33:00,
2013-05-17 04:42:00,53.0,51.0,29.94,East,101,6.0,8.0,94,0.00,,,0.00,,2013-05-17 11:42:00,
2013-05-17 04:52:00,53.0,51.0,29.94,ESE,106,4.0,7.0,94,0.00,,,0.00,,2013-05-17 11:52:00,
2013-05-17 05:02:00,52.0,50.0,29.96,ESE,106,0.0,0.0,94,0.00,,,0.00,,2013-05-17 12:02:00,
2013-05-17 05:12:00,52.0,50.0,29.96,ESE,106,0.0,0.0,94,0.00,,,0.00,,2013-05-17 12:12:00,
2013-05-17 05:23:00,52.0,51.0,29.95,ESE,120,6.0,8.0,95,0.00,,,0.00,,2013-05-17 12:23:00,
2013-05-17 05:32:00,52.0,51.0,29.95,ESE,111,7.0,10.0,96,0.00,,,0.00,,2013-05-17 12:32:00,
2013-05-17 05:42:00,52.0,51.0,29.95,ESE,111,7.0,10.0,96,0.00,,,0.00,,2013-05-17 12:42:00,
2013-05-17 05:53:00,53.0,52.0,29.96,East,90,8.0,13.0,96,0.00,,,0.00,,2013-05-17 12:53:00,
2013-05-17 06:03:00,53.0,52.0,29.96,ENE,76,9.0,14.0,96,0.00,,,0.00,,2013-05-17 13:03:00,
2013-05-17 06:12:00,53.0,52.0,29.96,ENE,76,9.0,14.0,96,0.00,,,0.00,,2013-05-17 13:12:00,
2013-05-17 06:23:00,53.0,52.0,29.96,ENE,65,7.0,11.0,95,0.00,,,0.00,,2013-05-17 13:23:00,
2013-05-17 06:33:00,53.0,52.0,29.97,ENE,61,4.0,10.0,95,0.00,,,0.00,,2013-05-17 13:33:00,
2013-05-17 06:42:00,53.0,52.0,29.97,ENE,61,4.0,10.0,95,0.00,,,0.00,,2013-05-17 13:42:00,
2013-05-17 06:52:00,53.0,51.0,29.98,ENE,78,5.0,8.0,94,0.00,,,0.00,,2013-05-17 13:52:00,
2013-05-17 07:02:00,53.0,51.0,29.98,East,92,3.0,7.0,94,0.00,,,0.00,,2013-05-17 14:02:00,
2013-05-17 07:12:00,53.0,51.0,29.98,East,92,3.0,7.0,94,0.00,,,0.00,,2013-05-17 14:12:00,
2013-05-17 07:22:00,54.0,52.0,29.99,East,94,1.0,7.0,93,0.00,,,0.00,,2013-05-17 14:22:00,
2013-05-17 07:34:00,54.0,52.0,29.99,East,94,0.0,2.0,93,0.00,,,0.00,,2013-05-17 14:34:00,
2013-05-17 07:42:00,54.0,52.0,29.99,East,94,0.0,2.0,93,0.00,,,0.00,,2013-05-17 14:42:00,
2013-05-17 07:53:00,54.0,52.0,29.99,East,94,0.0,0.0,92,0.00,,,0.00,,2013-05-17 14:53:00,
2013-05-17 08:03:00,55.0,52.0,29.99,SE,134,0.0,1.0,91,0.00,,,0.00,,2013-05-17 15:03:00,
2013-05-17 08:13:00,55.0,52.0,29.99,SE,134,0.0,1.0,91,0.00,,,0.00,,2013-05-17 15:13:00,
2013-05-17 08:25:00,55.0,52.0,30.00,SE,136,0.0,0.0,90,0.00,,,0.00,,2013-05-17 15:25:00,
2013-05-17 08:37:00,55.0,52.0,30.00,SW,230,1.0,3.0,90,0.00,,,0.00,,2013-05-17 15:37:00,
2013-05-17 08:47:00,55.0,52.0,30.00,SW,230,1.0,3.0,90,0.00,,,0.00,,2013-05-17 15:47:00,
2013-05-17 08:56:00,55.0,52.0,30.00,WNW,288,4.0,6.0,91,0.00,,,0.00,,2013-05-17 15:56:00,
2013-05-17 09:07:00,55.0,52.0,30.00,WNW,298,4.0,7.0,90,0.00,,,0.00,,2013-05-17 16:07:00,
2013-05-17 09:13:00,55.0,52.0,30.00,WNW,298,4.0,7.0,90,0.00,,,0.00,,2013-05-17 16:13:00,
2013-05-17 09:26:00,56.0,52.0,30.00,WSW,244,5.0,9.0,88,0.00,,,0.00,,2013-05-17 16:26:00,
2013-05-17 09:37:00,56.0,52.0,30.01,West,261,4.0,8.0,88,0.00,,,0.00,,2013-05-17 16:37:00,
2013-05-17 09:49:00,56.0,52.0,30.01,West,261,4.0,8.0,88,0.00,,,0.00,,2013-05-17 16:49:00,
2013-05-17 09:56:00,56.0,52.0,30.01,West,273,4.0,8.0,87,0.00,,,0.00,,2013-05-17 16:56:00,
2013-05-17 10:07:00,57.0,53.0,30.01,SSW,200,4.0,10.0,86,0.00,,,0.00,,2013-05-17 17:07:00,
2013-05-17 10:18:00,57.0,53.0,30.01,SSW,200,4.0,10.0,86,0.00,,,0.00,,2013-05-17 17:18:00,
2013-05-17 10:29:00,58.0,53.0,30.01,WNW,286,4.0,8.0,84,0.00,,,0.00,,2013-05-17 17:29:00,
2013-05-17 10:40:00,59.0,-99.9,30.01,West,263,6.0,11.0,83,0.00,,,0.00,,2013-05-17 17:40:00,
2013-05-17 10:49:00,59.0,54.0,30.01,West,263,6.0,11.0,83,0.00,,,0.00,,2013-05-17 17:49:00,
2013-05-17 11:00:00,60.0,53.0,30.01,WSW,238,4.0,9.0,79,0.00,,,0.00,,2013-05-17 18:00:00,
2013-05-17 11:08:00,59.0,53.0,30.01,WSW,246,4.0,8.0,80,0.00,,,0.00,,2013-05-17 18:08:00,
2013-05-17 11:20:00,59.0,53.0,30.01,WSW,246,4.0,8.0,80,0.00,,,0.00,,2013-05-17 18:20:00,
2013-05-17 11:30:00,59.0,53.0,30.01,WSW,254,1.0,9.0,81,0.00,,,0.00,,2013-05-17 18:30:00,
2013-05-17 11:40:00,60.0,-99.9,30.02,West,272,1.0,9.0,79,0.00,,,0.00,,2013-05-17 18:40:00,
2013-05-17 11:50:00,-999.0,-99.9,30.02,West,272,1.0,9.0,79,0.00,,,0.00,,2013-05-17 18:50:00,
2013-05-17 12:00:00,60.0,53.0,30.02,WNW,300,1.0,9.0,79,0.00,,,0.00,,2013-05-17 19:00:00,
2013-05-17 12:10:00,61.0,54.0,30.02,South,190,4.0,9.0,77,0.00,,,0.00,,2013-05-17 19:10:00,
2013-05-17 12:20:00,61.0,54.0,30.02,South,190,4.0,9.0,77,0.00,,,0.00,,2013-05-17 19:20:00,
2013-05-17 12:30:00,62.0,54.0,30.01,SE,138,3.0,10.0,74,0.00,,,0.00,,2013-05-17 19:30:00,
2013-05-17 12:40:00,61.0,53.0,30.01,SW,225,7.0,12.0,75,0.00,,,0.00,,2013-05-17 19:40:00,
2013-05-17 12:50:00,61.0,53.0,30.01,SW,225,7.0,12.0,75,0.00,,,0.00,,2013-05-17 19:50:00,
2013-05-17 13:00:00,63.0,-99.9,30.01,WSW,239,5.0,12.0,71,0.00,,,0.00,,2013-05-17 20:00:00,
2013-05-17 13:09:00,65.0,55.0,30.01,SSE,155,1.0,7.0,70,0.00,,,0.00,,2013-05-17 20:09:00,
2013-05-17 13:20:00,65.0,55.0,30.01,SSE,155,1.0,7.0,70,0.00,,,0.00,,2013-05-17 20:20:00,
2013-05-17 13:30:00,64.0,54.0,30.01,SSW,209,5.0,12.0,71,0.00,,,0.00,,2013-05-17 20:30:00,
2013-05-17 13:40:00,60.0,54.0,30.01,SSW,200,8.0,14.0,80,0.00,,,0.00,,2013-05-17 20:40:00,
2013-05-17 13:49:00,60.0,54.0,30.01,SSW,200,8.0,14.0,80,0.00,,,0.00,,2013-05-17 20:49:00,
2013-05-17 13:57:00,60.0,53.0,30.02,SE,146,7.0,12.0,78,0.00,,,0.00,,2013-05-17 20:57:00,
2013-05-17 14:07:00,63.0,55.0,30.01,South,183,1.0,11.0,74,0.00,,,0.00,,2013-05-17 21:07:00,
2013-05-17 14:16:00,63.0,55.0,30.01,South,183,1.0,11.0,74,0.00,,,0.00,,2013-05-17 21:16:00,
2013-05-17 14:25:00,63.0,55.0,30.01,NNE,23,4.0,8.0,75,0.00,,,0.00,,2013-05-17 21:25:00,
2013-05-17 14:39:00,65.0,55.0,30.01,ESE,121,3.0,9.0,69,0.00,,,0.00,,2013-05-17 21:39:00,
2013-05-17 14:49:00,65.0,55.0,30.01,ESE,121,3.0,9.0,69,0.00,,,0.00,,2013-05-17 21:49:00,
2013-05-17 14:57:00,62.0,54.0,30.01,SSE,153,7.0,11.0,74,0.00,,,0.00,,2013-05-17 21:57:00,
2013-05-17 15:06:00,63.0,54.0,30.01,South,177,5.0,11.0,72,0.00,,,0.00,,2013-05-17 22:06:00,
2013-05-17 15:17:00,63.0,54.0,30.01,South,177,5.0,11.0,72,0.00,,,0.00,,2013-05-17 22:17:00,
2013-05-17 15:28:00,62.0,52.0,30.01,South,177,7.0,13.0,71,0.00,,,0.00,,2013-05-17 22:28:00,
2013-05-17 15:38:00,61.0,52.0,30.01,SSE,152,7.0,14.0,72,0.00,,,0.00,,2013-05-17 22:38:00,
2013-05-17 15:47:00,61.0,52.0,30.01,SSE,152,7.0,14.0,72,0.00,,,0.00,,2013-05-17 22:47:00,
2013-05-17 15:54:00,60.0,52.0,30.00,South,178,5.0,15.0,76,0.00,,,0.00,,2013-05-17 22:54:00,
2013-05-17 16:04:00,61.0,53.0,30.00,SSE,150,5.0,11.0,76,0.00,,,0.00,,2013-05-17 23:04:00,
2013-05-17 16:13:00,61.0,53.0,30.00,SSE,150,5.0,11.0,76,0.00,,,0.00,,2013-05-17 23:13:00,
2013-05-17 16:23:00,61.0,53.0,30.00,North,360,5.0,11.0,75,0.00,,,0.00,,2013-05-17 23:23:00,
2013-05-17 16:37:00,63.0,53.0,29.99,SSE,156,2.0,8.0,69,0.00,,,0.00,,2013-05-17 23:37:00,
2013-05-17 16:47:00,63.0,53.0,29.99,SSE,156,2.0,8.0,69,0.00,,,0.00,,2013-05-17 23:47:00,
2013-05-17 16:54:00,63.0,52.0,29.99,SW,227,5.0,8.0,68,0.00,,,0.00,,2013-05-17 23:54:00,
2013-05-17 17:02:00,64.0,52.0,29.98,SW,217,1.0,9.0,66,0.00,,,0.00,,2013-05-18 00:02:00,
2013-05-17 17:14:00,64.0,52.0,29.98,SW,217,1.0,9.0,66,0.00,,,0.00,,2013-05-18 00:14:00,
2013-05-17 17:21:00,63.0,52.0,29.98,South,189,2.0,11.0,67,0.00,,,0.00,,2013-05-18 00:21:00,
2013-05-17 17:33:00,61.0,49.0,29.99,West,277,5.0,14.0,64,0.00,,,0.00,,2013-05-18 00:33:00,
2013-05-17 17:44:00,61.0,49.0,29.99,West,277,5.0,14.0,64,0.00,,,0.00,,2013-05-18 00:44:00,
2013-05-17 17:54:00,61.0,49.0,29.99,SW,223,7.0,14.0,64,0.00,,,0.00,,2013-05-18 00:54:00,
2013-05-17 18:02:00,60.0,48.0,29.98,West,281,12.0,17.0,65,0.00,,,0.00,,2013-05-18 01:02:00,
2013-05-17 18:13:00,60.0,48.0,29.98,West,281,12.0,17.0,65,0.00,,,0.00,,2013-05-18 01:13:00,
2013-05-17 18:24:00,58.0,48.0,29.98,WNW,283,12.0,19.0,70,0.00,,,0.00,,2013-05-18 01:24:00,
2013-05-17 18:31:00,57.0,47.0,29.97,WNW,282,14.0,20.0,69,0.00,,,0.00,,2013-05-18 01:31:00,
2013-05-17 18:42:00,57.0,47.0,29.97,WNW,282,14.0,20.0,69,0.00,,,0.00,,2013-05-18 01:42:00,
2013-05-17 18:52:00,58.0,49.0,29.97,West,279,6.0,18.0,71,0.00,,,0.00,,2013-05-18 01:52:00,
2013-05-17 19:02:00,58.0,49.0,29.98,NW,307,4.0,9.0,71,0.00,,,0.00,,2013-05-18 02:02:00,
2013-05-17 19:11:00,58.0,49.0,29.98,NW,307,4.0,9.0,71,0.00,,,0.00,,2013-05-18 02:11:00,
2013-05-17 19:22:00,58.0,49.0,29.98,WNW,296,3.0,9.0,72,0.00,,,0.00,,2013-05-18 02:22:00,
2013-05-17 19:31:00,56.0,48.0,29.98,WNW,287,8.0,12.0,74,0.00,,,0.00,,2013-05-18 02:31:00,
2013-05-17 19:42:00,56.0,48.0,29.98,WNW,287,8.0,12.0,74,0.00,,,0.00,,2013-05-18 02:42:00,
2013-05-17 19:53:00,55.0,47.0,29.98,NW,310,7.0,15.0,74,0.00,,,0.00,,2013-05-18 02:53:00,
2013-05-17 20:02:00,55.0,47.0,29.99,West,277,2.0,10.0,74,0.00,,,0.00,,2013-05-18 03:02:00,
2013-05-17 20:12:00,55.0,47.0,29.99,West,277,2.0,10.0,74,0.00,,,0.00,,2013-05-18 03:12:00,
2013-05-17 20:22:00,54.0,47.0,29.99,WNW,298,8.0,10.0,77,0.00,,,0.00,,2013-05-18 03:22:00,
2013-05-17 20:32:00,53.0,46.0,29.99,WNW,282,5.0,10.0,78,0.00,,,0.00,,2013-05-18 03:32:00,
2013-05-17 20:43:00,53.0,46.0,29.99,WNW,282,5.0,10.0,78,0.00,,,0.00,,2013-05-18 03:43:00,
2013-05-17 20:53:00,53.0,46.0,29.99,West,267,6.0,11.0,77,0.00,,,0.00,,2013-05-18 03:53:00,
2013-05-17 21:02:00,52.0,45.0,30.00,NNW,342,1.0,4.0,78,0.00,,,0.00,,2013-05-18 04:02:00,
2013-05-17 21:12:00,52.0,45.0,30.00,NNW,342,1.0,4.0,78,0.00,,,0.00,,2013-05-18 04:12:00,
2013-05-17 21:22:00,52.0,45.0,30.00,South,180,0.0,8.0,78,0.00,,,0.00,,2013-05-18 04:22:00,
2013-05-17 21:32:00,52.0,46.0,30.01,ESE,115,0.0,3.0,79,0.00,,,0.00,,2013-05-18 04:32:00,
2013-05-17 21:42:00,52.0,46.0,30.01,ESE,115,0.0,3.0,79,0.00,,,0.00,,2013-05-18 04:42:00,
2013-05-17 21:52:00,52.0,46.0,30.01,East,82,5.0,6.0,79,0.00,,,0.00,,2013-05-18 04:52:00,
2013-05-17 22:02:00,51.0,45.0,30.01,East,86,8.0,9.0,79,0.00,,,0.00,,2013-05-18 05:02:00,
2013-05-17 22:12:00,51.0,45.0,30.01,East,86,8.0,9.0,79,0.00,,,0.00,,2013-05-18 05:12:00,
2013-05-17 22:21:00,52.0,45.0,30.01,ENE,76,3.0,9.0,78,0.00,,,0.00,,2013-05-18 05:21:00,
2013-05-17 22:31:00,53.0,46.0,30.01,ENE,76,0.0,3.0,78,0.00,,,0.00,,2013-05-18 05:31:00,
2013-05-17 22:42:00,53.0,46.0,30.01,ENE,76,0.0,3.0,78,0.00,,,0.00,,2013-05-18 05:42:00,
2013-05-17 22:51:00,53.0,45.0,30.01,ENE,78,4.0,5.0,75,0.00,,,0.00,,2013-05-18 05:51:00,
2013-05-17 23:02:00,53.0,46.0,30.01,ESE,107,6.0,9.0,77,0.00,,,0.00,,2013-05-18 06:02:00,
2013-05-17 23:11:00,53.0,46.0,30.01,ESE,107,6.0,9.0,77,0.00,,,0.00,,2013-05-18 06:11:00,
2013-05-17 23:22:00,53.0,46.0,30.01,East,92,9.0,11.0,77,0.00,,,0.00,,2013-05-18 06:22:00,
2013-05-17 23:31:00,53.0,46.0,30.01,East,89,10.0,13.0,76,0.00,,,0.00,,2013-05-18 06:31:00,
2013-05-17 23:42:00,53.0,46.0,30.01,East,89,10.0,13.0,76,0.00,,,0.00,,2013-05-18 06:42:00,
2013-05-17 23:51:00,54.0,46.0,30.01,East,92,11.0,14.0,75,0.00,,,0.00,,2013-05-18 06:51:00,